Regional Weather Roundup
Issued by NWS

Home | Current Version | Previous Version | Text Only | Print | Product List | Glossary On
Versions: 1 2 3 4 5 6 7 8 9 10 11 12 13 14 15 16 17 18 19 20 21 22 23 24 25 26 27 28 29 30 31 32 33 34 35 36 37 38 39 40 41 42 43 44 45 46 47 48 49 50
000
ASUS43 KLSX 180457
RWRMO

WEATHER SUMMARY FOR MISSOURI
NATIONAL WEATHER SERVICE SPRINGFIELD MO
1100 PM CST TUE JAN 17 2017

NOTE: "FAIR" INDICATES FEW OR NO CLOUDS BELOW 12,000 FEET WITH NO
       SIGNIFICANT WEATHER AND/OR OBSTRUCTIONS TO VISIBILITY.
       CURRENT SKY AND/OR WEATHER CONDITIONS ARE NOT AVAILABLE FOR
       CHILLICOTHE AND FARMINGTON.

MOZ001>031-035>038-043-044-053-054-180600-
...NORTHERN AND WESTERN MISSOURI...

CITY           SKY/WX    TMP DP  RH WIND       PRES   REMARKS
KANSAS CTY INT CLOUDY    30  27  88 S6        30.15S FOG     WCI  24
KANSAS C DTWN  CLOUDY    30  30 100 CALM      30.16S FOG
LEE`S SUMMIT   CLEAR     32  31  96 S7        30.17R WCI  26
ST JOSEPH      FOG       25  25 100 CALM      30.15F VSB 1/2
CHILLICOTHE      N/A     34  31  88 SW3       30.19R

$$
MOZ066>068-077>081-088>096-101>105-180600-
...SOUTHWEST MISSOURI...

CITY           SKY/WX    TMP DP  RH WIND       PRES   REMARKS
SPRINGFIELD    CLOUDY    37  35  92 SW5       30.20R
JOPLIN         CLOUDY    38  37  97 S8        30.22R

$$
MOZ032>034-039>042-045>050-055>058-069>072-180600-
...CENTRAL MISSOURI...

CITY           SKY/WX    TMP DP  RH WIND       PRES   REMARKS
COLUMBIA       NOT AVBL
JEFFERSON CITY CLOUDY    39  34  82 W8        30.20R
ROLLA          CLOUDY    37  35  92 W8        30.16S
SEDALIA        CLOUDY    37  33  85 VRB3      30.19R
WARRENSBURG    CLOUDY    34  32  93 S5        30.18R WCI  30

$$
MOZ051-052-059>065-180600-
...EAST CENTRAL MISSOURI...

CITY           SKY/WX    TMP DP  RH WIND       PRES   REMARKS
ST LOUIS INTL  CLOUDY    41  35  79 NW8       30.17S

$$
MOZ072>076-082>087-097>100-106>115-180600-
...SOUTH CENTRAL AND SOUTHEAST MISSOURI...

CITY           SKY/WX    TMP DP  RH WIND       PRES   REMARKS
CAPE GIRARDEAU CLOUDY    44  39  82 W7        30.18S
FARMINGTON     CLOUDY    39  36  87 NW6       30.18R
POPLAR BLUFF   CLOUDY    44  38  79 NW6       30.19R
WEST PLAINS    CLOUDY    39  36  89 NW6       30.19R

$$



USA.gov is the U.S. government's official web portal to all federal, state and local government web resources and services.